Regional Weather Roundup
Issued by NWS

Home | Current Version | Previous Version | Graphics & Text | Print | Product List | Glossary On
Versions: 1 2 3 4 5 6 7 8 9 10 11 12 13 14 15 16 17 18 19 20 21 22 23 24 25 26 27 28
000
ASUS45 KSLC 300110
RWRUT

UTAH REGIONAL WEATHER ROUNDUP
NATIONAL WEATHER SERVICE SALT LAKE CITY UT
700 PM MDT THU SEP 29 2016

UTZ001>011-023>025-300200-

NORTHERN UTAH

CITY           SKY/WX    TMP DP  RH WIND       PRES   REMARKS
BRIGHAM CITY     N/A     71  48  44 CALM      30.18S
HILL AFB       PTCLDY    67  52  59 S3        30.19S
LOGAN          CLEAR     66  52  60 NW7       30.18S
OGDEN          CLEAR     70  50  49 SE3       30.17S
PROVO AIRPORT  PTCLDY    75  45  33 W7        30.19R
SALT LAKE CITY PTCLDY    72  51  47 NW3       30.16S
VERNAL         MOCLDY    61  55  81 N5        30.33S
WENDOVER       MOCLDY   N/A N/A N/A MISG        N/A
HEBER CITY     PTCLDY    70  37  30 SW12      30.22S
WEST JORDAN    CLEAR     68  51  53 CALM      30.20S

$$

UTZ012>022-026-027-300200-

SOUTHERN/CENTRAL UTAH

CITY           SKY/WX    TMP DP  RH WIND       PRES   REMARKS
BLANDING       CLOUDY    56  54  92 E5        30.47F
BRYCE CANYON   CLOUDY    52  47  83 CALM      30.43F
CEDAR CITY     PTCLDY    67  47  48 SW9       30.26S
DELTA          MOCLDY    70  41  35 S8        30.20S
MILFORD        CLOUDY    73  47  39 E8        30.20F
MOAB/CYNLANDS  CLOUDY    68  54  60 SE9       30.27F
PRICE          NOT AVBL
ST GEORGE      MOCLDY    82  50  32 E10       30.14S

$$

REGIONAL REPORTS     COLORADO/ARIZONA

CITY           SKY/WX    TMP DP  RH WIND       PRES   REMARKS
CRAIG, CO      CLOUDY    59  50  72 E3        30.38S
GRAND JUNCTION CLOUDY    63  58  83 CALM      30.33S
RIFLE          CLOUDY    63  53  70 CALM      30.35S
MONTROSE       CLOUDY    61  48  62 N6        30.40F
CORTEZ         CLOUDY    57  54  89 CALM      30.41F
PAGE, AZ       MOCLDY    65  60  84 NE6       30.26F
GRAND CANYON   CLOUDY    53  49  86 NE9       30.38R
KINGMAN        CLOUDY    81  46  29 SW13      30.15R
FLAGSTAFF      PTCLDY    55  51  86 CALM      30.39S

$$

REGIONAL REPORTS    NEVADA/IDAHO/WYOMING

CITY           SKY/WX    TMP DP  RH WIND       PRES   REMARKS
LAS VEGAS, NV  PTCLDY    88  44  21 S5        30.03S
ELY            PTCLDY    67  38  34 SW7       30.26S
ELKO           CLOUDY    70  39  32 NW17G29   30.16S
POCATELLO, ID  MOCLDY    71  46  40 S12       30.14
EVANSTON, WY   CLOUDY    60  42  51 W9        30.33S
ROCK SPRINGS   CLOUDY    61  41  47 SW17      30.31F

$$




USA.gov is the U.S. government's official web portal to all federal, state and local government web resources and services.